Clearfield, PA

3:01 PM EDT on June 22, 2017 (GMT -0400)
Clearfield-Lawrence

Weather History for KFIG - February, 2013

Change the Weather History Date:

Tuesday, February 12, 2013

  Actual Average (KDUJ) Record (KDUJ)
Temperature  
Mean Temperature 30 °F -  
Max Temperature 34 °F 29 °F 59 °F (1984)
Min Temperature 23 °F 15 °F -7 °F (1995)
Degree Days  
Heating Degree Days 36    
Moisture  
Dew Point 21 °F    
Average Humidity 67    
Maximum Humidity 85    
Minimum Humidity 61    
Precipitation  
Precipitation 0.00 in - - ()
Sea Level Pressure  
Sea Level Pressure 29.95 in    
Wind  
Wind Speed 13 mph (West)    
Max Wind Speed 22 mph    
Max Gust Speed 33 mph    
Visibility 10 miles    
Events Snow    
Averages and records for this station are not official NWS values.
T = Trace of Precipitation, MM = Missing Value Source: NWS Daily Summary

Daily Weather History Graph

Daily Weather History Graph

Search for Another Location

Airport or City:

Trip Planner

Search our weather history database for the weather conditions in past years. The results will help you decide how hot, cold, wet, or windy it might be!

Date:

Astronomy

Feb. 12, 2013 Rise Set
Actual Time 7:11 AM EST 5:44 PM EST
Civil Twilight 6:43 AM EST 6:13 PM EST
Nautical Twilight 6:10 AM EST 6:45 PM EST
Astronomical Twilight 5:39 AM EST 7:17 PM EST
Moon 8:06 AM EST (2/12) 8:45 PM EST (2/12)
Length of Visible Light 11h 29m
Length of Day
10h 33m
Waxing Crescent, 7% of the Moon is Illuminated
Feb 12
Waxing Crescent
Feb 17
First Quarter
Feb 25
Full
Mar 4
Last Quarter
Mar 11
New

Hourly Weather History & Observations

Time (EST) Temp. Windchill Dew Point Humidity Pressure Visibility Wind Dir Wind Speed Gust Speed Precip Events Conditions
12:54 AM 34.0 °F 24.2 °F 21.9 °F 61% 29.86 in 10.0 mi West 15.0 mph 32.2 mph N/A   Overcast
1:54 AM 33.1 °F 20.9 °F 21.9 °F 64% 29.86 in 10.0 mi West 21.9 mph 28.8 mph N/A   Overcast
2:54 AM 33.1 °F 21.9 °F 21.9 °F 64% 29.87 in 10.0 mi West 18.4 mph 28.8 mph N/A   Overcast
3:54 AM 32.0 °F 21.2 °F 23.0 °F 69% 29.87 in 9.0 mi West 16.1 mph 33.4 mph 0.00 in Snow Light Snow
4:54 AM 32.0 °F 23.0 °F 21.0 °F 64% 29.89 in 10.0 mi West 11.5 mph 29.9 mph 0.00 in   Overcast
5:35 AM 32.0 °F 21.2 °F 21.2 °F 64% 29.88 in 10.0 mi West 16.1 mph 32.2 mph N/A   Overcast
5:54 AM 30.9 °F 18.7 °F 21.0 °F 67% 29.91 in 10.0 mi West 19.6 mph 25.3 mph N/A   Overcast
6:12 AM 30.2 °F 19.3 °F 19.4 °F 64% 29.89 in 10.0 mi West 15.0 mph 28.8 mph N/A   Overcast
6:54 AM 30.9 °F 21.7 °F 19.0 °F 61% 29.94 in 10.0 mi West 11.5 mph 24.2 mph N/A   Overcast
7:54 AM 30.9 °F 20.7 °F 19.9 °F 64% 29.96 in 10.0 mi West 13.8 mph 21.9 mph N/A   Overcast
8:47 AM 30.2 °F 19.3 °F 19.4 °F 64% 29.94 in 10.0 mi West 15.0 mph 31.1 mph 0.00 in   Overcast
8:54 AM 30.9 °F 20.2 °F 19.9 °F 64% 29.99 in 10.0 mi West 15.0 mph 23.0 mph 0.00 in   Overcast
9:30 AM 30.2 °F 21.9 °F 19.4 °F 64% 29.95 in 10.0 mi West 9.2 mph 21.9 mph 0.00 in   Overcast
9:54 AM 30.0 °F 19.1 °F 19.0 °F 64% 30.01 in 10.0 mi West 15.0 mph 27.6 mph 0.00 in   Overcast
10:21 AM 30.2 °F 20.8 °F 19.4 °F 64% 29.97 in 10.0 mi West 11.5 mph 21.9 mph N/A   Overcast
10:54 AM 30.9 °F 22.2 °F 19.9 °F 64% 30.02 in 10.0 mi West 10.4 mph 21.9 mph N/A   Overcast
11:40 AM 30.2 °F 21.9 °F 21.2 °F 69% 29.98 in 10.0 mi West 9.2 mph - N/A   Overcast
11:54 AM 30.0 °F 20.5 °F 21.0 °F 69% 30.03 in 10.0 mi West 11.5 mph 21.9 mph N/A   Overcast
12:54 PM 30.0 °F 20.5 °F 21.0 °F 69% 30.01 in 10.0 mi West 11.5 mph 18.4 mph N/A   Overcast
1:54 PM 30.9 °F 22.2 °F 19.9 °F 64% 29.98 in 10.0 mi West 10.4 mph 18.4 mph N/A   Overcast
2:54 PM 33.1 °F 24.9 °F 21.0 °F 61% 29.93 in 10.0 mi West 10.4 mph - N/A   Overcast
3:54 PM 33.1 °F 23.9 °F 21.0 °F 61% 29.95 in 10.0 mi WNW 12.7 mph 18.4 mph N/A   Mostly Cloudy
4:54 PM 32.0 °F 24.2 °F 21.0 °F 64% 30.01 in 10.0 mi West 9.2 mph - N/A   Overcast
5:54 PM 30.9 °F 22.2 °F 21.9 °F 69% 30.01 in 10.0 mi WSW 10.4 mph - N/A   Overcast
6:54 PM 30.0 °F 24.1 °F 21.0 °F 69% 30.00 in 10.0 mi NW 5.8 mph - N/A   Scattered Clouds
7:54 PM 28.9 °F 23.9 °F 21.0 °F 72% 29.99 in 10.0 mi NW 4.6 mph - N/A   Clear
8:54 PM 26.1 °F - 19.9 °F 78% 29.98 in 10.0 mi Calm Calm - N/A   Clear
9:54 PM 27.0 °F - 19.9 °F 75% 29.96 in 10.0 mi Calm Calm - N/A   Clear
10:54 PM 25.0 °F - 21.0 °F 85% 29.95 in 10.0 mi Calm Calm - N/A   Clear
11:54 PM 23.0 °F - 19.0 °F 85% 29.96 in 10.0 mi Calm Calm - N/A   Clear